www.pogodaiklimat.ru

Погода и климат >> Архив погоды >> Индия >> Kakinada


ПОГОДА в Kakinada

  • Прогноз погоды в Kakinada
  • Монитор погоды в Kakinada
  • Климат города

АРХИВ ПОГОДЫ в Kakinada

Время (UTC), дата Ветер
(напр.,м/с)
 
Видим.   Явления Облачность Т
(С)
Тd
(С)
f
(%)
Тe
(С)
Тes
(С)
Комфортность P
(гПа)
Po
(гПа)
Тmin
(С)
Tmax
(С)
R
(мм)
R24
(мм)
S
(см)
00 11.01 штиль 0 4000 м ясно +20.4 +17.8 85 +24 +24 комфорт 1015.0 1014.1
03 11.01 С 1 4000 м мгла ясно +22.8 +17.7 73 +28 +33 душно 1017.5 1016.6 +20.0 +29.3
06 11.01 В 2 10 км ясно +28.4 +21.5 66 +36 +51 опасность
солнечного
удара
1016.8 1015.9
09 11.01 штиль 0 10 км ясно +28.8 +20.6 61 +36 +47 очень
душно
1013.5 1012.6
12 11.01 В 2 10 км 3/0
[Ci fib]
+26.4 +21.3 74 +34 +34 очень
душно
1012.9 1012.0 +29.3
15 11.01 штиль 0 4000 м ясно +25.0 +21.7 82 +32 +32 очень
душно
1014.7 1013.8
18 11.01 штиль 0 4000 м ясно +23.4 +21.0 86 +31 +31 очень
душно
1014.2 1013.3
21 11.01 штиль 0 4000 м ясно +21.8 +19.9 89 +27 +27 душно 1013.4 1012.5
00 12.01 штиль 0 4000 м ясно +20.4 +18.5 89 +24 +24 комфорт 1013.6 1012.7
03 12.01 штиль 0 10 км ясно +22.4 +20.6 90 +29 +35 очень
душно
1016.0 1015.1 +20.4 +29.3
06 12.01 нст 1 4000 м мгла 1/1 600 м
[Sc]
+27.8 +20.5 65 +35 +49 очень
душно
1015.4 1014.5
09 12.01 штиль 0 10 км ясно +30.0 +20.7 57 +37 +48 очень
душно
1011.9 1011.0
12 12.01 В 2 10 км ясно +27.0 +21.9 74 +35 +35 очень
душно
1011.4 1010.5 +30.7
15 12.01 штиль 0 4000 м ясно +24.8 +21.8 83 +32 +32 очень
душно
1013.6 1012.7
18 12.01 штиль 0 4000 м ясно +23.6 +21.2 86 +30 +30 очень
душно
1014.0 1013.1
21 12.01 штиль 0 4000 м мгла ясно +22.0 +20.8 93 +28 +28 душно 1013.0 1012.1
00 13.01 штиль 0 4000 м мгла 4/4 600 м
[Sc]
+22.2 +20.7 91 +29 +29 очень
душно
1012.7 1011.8
03 13.01 штиль 0 10 км 9/4 600 м
[Sc Ac trans Ci fib]
+24.0 +21.9 88 +31 +33 очень
душно
1015.6 1014.7 +20.0 +30.7
06 13.01 штиль 0 10 км 9/4 600 м
[Sc Ac trans Ci fib]
+27.0 +21.9 74 +35 +41 очень
душно
1015.4 1014.5
09 13.01 штиль 0 10 км 9/4 600 м
[Sc Ac trans Ci fib]
+27.4 +21.4 70 +35 +39 очень
душно
1012.2 1011.3
12 13.01 В 2 10 км 5/3 600 м
[Sc Ci fib]
+27.2 +21.2 70 +34 +34 очень
душно
1011.4 1010.5 +30.1
15 13.01 штиль 0 4000 м ясно +25.6 +21.7 79 +33 +33 очень
душно
1013.4 1012.5
18 13.01 штиль 0 4000 м ясно +24.6 +22.2 87 +32 +32 очень
душно
1013.5 1012.6
21 13.01 штиль 0 4000 м ясно +24.0 +21.9 88 +31 +31 очень
душно
1013.0 1012.1
00 14.01 штиль 0 4000 м ясно +23.6 +22.1 91 +30 +30 очень
душно
1013.2 1012.3
03 14.01 штиль 0 4000 м мгла ясно +24.0 +22.2 90 +31 +37 очень
душно
1015.9 1015.0 +23.4 +30.1
06 14.01 В 2 10 км ясно +28.6 +22.4 69 +37 +52 опасность
солнечного
удара
1015.7 1014.8
09 14.01 штиль 0 4000 м ясно +29.6 +19.6 55 +36 +47 очень
душно
1012.3 1011.4
12 14.01 штиль 0 10 км ясно +28.4 +19.5 59 +34 +34 очень
душно
1011.9 1011.0 +30.3
15 14.01 штиль 0 4000 м ясно +27.2 +21.8 72 +35 +35 очень
душно
1013.9 1013.0
18 14.01 штиль 0 4000 м ясно +24.0 +21.6 86 +31 +31 очень
душно
1014.7 1013.8
21 14.01 штиль 0 4000 м мгла ясно +23.0 +21.2 90 +31 +31 очень
душно
1013.9 1013.0
00 15.01 штиль 0 4000 м мгла ясно +21.8 +20.3 91 +28 +28 душно 1013.9 1013.0
03 15.01 штиль 0 4000 м мгла ясно +22.6 +20.4 87 +29 +35 очень
душно
1016.1 1015.2 +21.1 +30.3
06 15.01 В 2 10 км ясно +27.2 +21.2 70 +34 +49 очень
душно
1015.7 1014.8
09 15.01 В 2 10 км ясно +28.4 +20.5 62 +35 +44 очень
душно
1012.3 1011.4
12 15.01 В 2 10 км ясно +26.4 +21.0 72 +33 +33 очень
душно
1011.0 1010.1 +29.4
15 15.01 штиль 0 4000 м ясно +25.0 +21.1 79 +32 +32 очень
душно
1013.0 1012.1
18 15.01 штиль 0 4000 м ясно +24.6 +21.0 80 +31 +31 очень
душно
1013.4 1012.5
21 15.01 штиль 0 4000 м ясно +24.0 +21.0 83 +30 +30 очень
душно
1012.1 1011.2
00 16.01 штиль 0 4000 м ясно +21.8 +19.6 87 +27 +27 душно 1012.1 1011.2
03 16.01 штиль 0 10 км ясно +23.0 +20.9 88 +30 +36 очень
душно
1014.9 1014.0 +21.8 +29.4
06 16.01 В 2 10 км 5/5 600 м
[Sc]
+28.2 +20.3 62 +35 +42 очень
душно
1015.0 1014.1
09 16.01 штиль 0 10 км 4/4 600 м
[Sc]
+29.2 +20.4 59 +36 +43 очень
душно
1011.7 1010.8
12 16.01 В 2 10 км ясно +27.2 +17.5 55 +31 +31 душно 1010.3 1009.4 +30.2
15 16.01 штиль 0 4000 м ясно +24.8 +17.1 62 +29 +29 душно 1012.6 1011.7
18 16.01 штиль 0 4000 м ясно +22.8 +20.0 84 +29 +29 очень
душно
1013.1 1012.2
21 16.01 штиль 0 4000 м ясно +22.0 +18.5 81 +27 +27 душно 1011.8 1010.9
00 17.01 штиль 0 4000 м мгла ясно +20.2 +18.3 89 +23 +23 комфорт 1011.8 1010.9
03 17.01 штиль 0 4000 м мгла ясно +21.8 +17.6 77 +26 +32 душно 1015.1 1014.2 +20.0 +30.2
06 17.01 штиль 0 10 км 4/4 600 м
[Sc]
+28.2 +18.6 56 +33 +44 очень
душно
1015.3 1014.4
09 17.01 В 3 10 км ясно +28.6 +19.0 56 +34 +41 очень
душно
1012.4 1011.5
12 17.01 В 3 10 км ясно +26.0 +16.3 55 +29 +29 душно 1011.8 1010.9 +29.2
15 17.01 штиль 0 4000 м ясно +24.0 +15.8 60 +27 +27 жарко 1014.2 1013.3
18 17.01 штиль 0 4000 м ясно +21.6 +18.1 80 +26 +26 душно 1013.6 1012.7
21 17.01 штиль 0 4000 м ясно +20.4 +17.1 81 +23 +23 комфорт 1011.4 1010.5

 

Местоположение метеостанции Kakinada (Andhra Pradesh, Индия): широта 16.95 долгота 82.23 высота над уровнем моря 8 м.

В архиве по умолчанию представлена погода в Kakinada за последнюю неделю. Архивные данные за месяц целиком и за предыдущие месяцы, начиная с января 2011 года, Вы можете получить, выбрав интересующий диапазон дат из раскрывающегося списка и нажав кнопку "Ввод!".

Внимание! Время в таблицах - всемирное. Для получения местного времени необходимо прибавить поправку, которая в Kakinada равна 5.5 ч.

Смотрите также архив погоды в соседних городах и на ближайших метеорологических станциях:

Погода в Tuni (Andhra Pradesh, Индия) (56 км)
Погода в Narsapur (Andhra Pradesh, Индия) (81 км)
Погода в Visakhapatnam (Andhra Pradesh, Индия) (136 км)
Погода в Visakhapatnam Walt (Andhra Pradesh, Индия) (141 км)
Погода в Machilipatnam (Andhra Pradesh, Индия) (142 км)
Погода в Gannavaram (Andhra Pradesh, Индия) (159 км)
Погода в Bhadrachalam (Telangana, Индия) (164 км)
Погода в Nandigama (Andhra Pradesh, Индия) (208 км)
Погода в Koraput (Orissa, Индия) (214 км)
Погода в Bapatla (Andhra Pradesh, Индия) (221 км)

Пояснения к столбцам:

Ветер - указаны скорость ветра в м/с - средняя за 10 мин, порывы в срок и между сроками (в фигурных скобках) и направление, откуда дует ветер: С - северный, СВ - северо-восточный, В - восточный, ЮВ - юго-восточный, Ю - южный, ЮЗ - юго-западный, З - западный, СЗ - северо-западный.
Видимость - горизонтальная дальность видимости в метрах или километрах. При видимости от 1 до 10 км при отсутствии осадков обычно наблюдается дымка, при ухудшении видимости до 1 км и менее - туман. В сухую погоду видимость может ухудшаться дымом, пылью или мглою.
Явления - указаны атмосферные явления, наблюдавшиеся в срок или в последний час перед сроком; фигурными скобками обозначены явления, наблюдавшиеся между сроками (за 1-3 часа до срока); квадратными скобками обозначены град или гололедные отложения с указанием их диаметра в мм.
Облачность - указаны через наклонную черту общая и нижняя облачность в баллах и высота нижней границы облаков в метрах; квадратными скобками обозначены формы облаков: Ci - перистые, Cs - перисто-слоистые, Cc - перисто-кучевые, Ac - высококучевые, As - высокослоистые, Sc - слоисто-кучевые, Ns - слоисто-дождевые, Cu - кучевые, Cb - кучево-дождевые. Подробнее классификацию облаков см. в Атласе облаков (PDF).
T - Температура воздуха - температура, измеренная на высоте 2 м над землей.
Td - Температура точки росы - температура, при понижении до которой содержащийся в воздухе водяной пар достигнет насыщения.
f - Относительная влажность воздуха - влажноcть воздуха, измеренная на высоте 2 м над землей.
Te - Эффективная температура - температура, которую ощущает одетый по сезону человек в тени. Характеристика душности погоды. При расчете учитывается влияние влажности воздуха и скорости ветра на теплоощущения человека.
Tes - Эффективная температура на солнце - температура, которую ощущает человек, с поправкой на солнечный нагрев. Характеристика знойности погоды. Зависит от высоты солнца над горизонтом, облачности и скорости ветра. Ночью, в пасмурную погоду, а также при ветре 12 м/с и более поправка равна нулю.
P - Атмосферное давление - приведенное к уровню моря атмосферное давление.
Po - Атмосферное давление - измеренное на уровне метеостанции атмосферное давление.
Tmin - Минимальная температура - минимум температуры воздуха на высоте 2 м над землей.
Tmax - Максимальная температура - максимум температуры воздуха на высоте 2 м над землей.
R - Количество осадков - Количество выпавших осадков за период времени, мм. При наведении курсора мыши на число - период времени, за который выпало указанное количество осадков.
R24 - Количество осадков - Количество выпавших осадков за 24 часа, мм.
S - Снежный покров - Высота снежного покрова, см. При наведении курсора мыши на число - состояние снежного покрова и степень покрытия местности в баллах.